Aérodrome :
LOGIN :

S'inscrire | Disclaimer

   EN    FR    IT 

 










Légende :    VFR   VFR Marginal   IFR   IFR Intensif   IFR Très Intensif
Visi : 
Plafond : 
>= 8 km
>= 3000ft
5 à 8 km
1000 à 3000 ft
1500m à 5 km
500 à 1000 ft
800 à 1500m
200 à 500 ft
< 800m
< 200 ft
Symboles :   Orages  Brouillard  Fortes neiges  Fortes précipitations  Vent > 20 kt
SIGMETs :   Divers  Orages  Givrage  Turbulence  Onde Orograph.  Cendres Volcan.







- Altitude de l'aérodrome : 265 ft
- Code IATA : BJY


LYBT - Batajnica Air Base

DERNIER METAR :
  • 160630Z 08002KT CAVOK 12/06 Q1023 NOSIG

METARs EXPIRÉS :
  • 160600Z 07001KT CAVOK 09/04 Q1023 NOSIG
  • 160530Z 00000KT CAVOK 08/04 Q1023 NOSIG
  • 160500Z 19003KT 150V220 CAVOK 07/04 Q1022 NOSIG
  • 160430Z 09004KT CAVOK 08/04 Q1022 NOSIG
  • 160400Z 08003KT 040V110 CAVOK 10/03 Q1022 NOSIG

TAF TAF LYBT
Valide du 16 à 06h jusqu'au 17 à 06h UTC


160500Z 1606/1706 09005KT CAVOK TX23/1612Z TN07/1705Z
TEMPO 1609/1613 11015KT
Pas de NOTAMs connus pour ce terrain.



MET'MAP, la Météo Aéronautique d'un coup d'oeil ! - Copyright ORBIFLY Décembre 2007 - Disclaimer

ORBIFLY MET'MAP TEAM :

Programmation & Développement : Alexandra Zaïnal
Conception & Développement : Baudouin d'Aumeries
Co-Programmation & Développement : Marc-Olivier Méhu
Soutien technique & logistique : Manuel Goepfert

Contact : metmap@orbifly.com




SOURCES & CREDITS :

   NOAA